Weather History for Richmond, KY

Change the Weather History Date:

Tuesday, December 25, 2012

  Actual Average (KLOZ) Record (KLOZ)
Temperature  
Mean Temperature 36 °F 37 °F  
Max Temperature 41 °F 45 °F 75 °F (1982)
Min Temperature 32 °F 28 °F -9 °F (1983)
Degree Days  
Heating Degree Days 28 28  
Month to date heating degree days 648  
Since 1 July heating degree days 1478  
Cooling Degree Days 0 0  
Month to date cooling degree days 0  
Year to date cooling degree days 1190  
Moisture  
Dew Point 30 °F    
Average Humidity 84    
Maximum Humidity 93    
Minimum Humidity 75    
Precipitation  
Precipitation 0.00 in 0.13 in 2.39 in (1987)
Month to date precipitation 3.50  
Year to date precipitation 46.40  
Sea Level Pressure  
Sea Level Pressure 30.04 in    
Wind  
Wind Speed 8 mph (NNE)    
Max Wind Speed 15 mph    
Max Gust Speed 22 mph    
Visibility 9 miles    
Events      
T = Trace of Precipitation, MM = Missing Value Source: NWS Daily Summary

Daily Weather History Graph

Daily Weather History Graph

Search for Another Location

Airport:

Trip Planner

Search our weather history database for the weather conditions in past years. The results will help you decide how hot, cold, wet, or windy it might be!

Date:

Astronomy

Dec. 25, 2012 Rise Set
Actual Time 7:50 AM EST 5:24 PM EST
Civil Twilight 7:21 AM EST 5:54 PM EST
Nautical Twilight 6:48 AM EST 6:27 PM EST
Astronomical Twilight 6:16 AM EST 6:59 PM EST
Moon 3:31 PM EST (12/25) 5:23 AM EST (12/25)
Length of Visible Light 10h 32m
Length of Day
9h 34m
Waxing Gibbous, 93% of the Moon is Illuminated
Dec 25
Waxing Gibbous
Dec 28
Full
Jan 4
Last Quarter
Jan 11
New
Jan 18
First Quarter

Hourly Weather History & Observations

Time (EST) Temp. Windchill Dew Point Humidity Pressure Visibility Wind Dir Wind Speed Gust Speed Precip Events Conditions
12:15 AM 41.0 °F 35.2 °F 35.6 °F 81% 29.98 in 10.0 mi NW 9.2 mph - N/A   Overcast
12:35 AM 41.0 °F 35.2 °F 35.6 °F 81% 29.99 in 10.0 mi NW 9.2 mph - N/A   Overcast
12:55 AM 39.2 °F 33.6 °F 35.6 °F 87% 30.00 in 10.0 mi NW 8.1 mph - N/A   Overcast
1:15 AM 39.2 °F 33.6 °F 35.6 °F 87% 30.00 in 10.0 mi NW 8.1 mph - N/A   Overcast
1:35 AM 39.2 °F 35.0 °F 35.6 °F 87% 30.01 in 7.0 mi NNW 5.8 mph - N/A   Overcast
1:55 AM 37.4 °F 32.8 °F 33.8 °F 87% 30.01 in 7.0 mi NNW 5.8 mph - N/A   Overcast
2:15 AM 37.4 °F 32.1 °F 33.8 °F 87% 30.01 in 7.0 mi NW 6.9 mph - N/A   Overcast
2:35 AM 37.4 °F 32.8 °F 33.8 °F 87% 30.02 in 7.0 mi NNW 5.8 mph - N/A   Overcast
2:55 AM 35.6 °F 30.7 °F 32.0 °F 87% 30.02 in 7.0 mi NW 5.8 mph - N/A   Overcast
3:15 AM 35.6 °F 30.7 °F 32.0 °F 87% 30.03 in 7.0 mi NW 5.8 mph - N/A   Overcast
3:35 AM 35.6 °F 30.7 °F 32.0 °F 87% 30.04 in 7.0 mi NW 5.8 mph - N/A   Overcast
3:55 AM 35.6 °F 28.6 °F 32.0 °F 87% 30.03 in 7.0 mi NNW 9.2 mph - N/A   Overcast
4:15 AM 35.6 °F 29.2 °F 32.0 °F 87% 30.03 in 7.0 mi NNW 8.1 mph - N/A   Overcast
4:35 AM 33.8 °F 27.7 °F 30.2 °F 87% 30.05 in 7.0 mi North 6.9 mph - N/A   Overcast
4:55 AM 33.8 °F 28.6 °F 30.2 °F 87% 30.04 in 7.0 mi NNW 5.8 mph - N/A   Overcast
5:15 AM 33.8 °F 28.6 °F 30.2 °F 87% 30.05 in 7.0 mi NNW 5.8 mph - N/A   Overcast
5:35 AM 33.8 °F 27.0 °F 30.2 °F 87% 30.07 in 7.0 mi NNW 8.1 mph - N/A   Overcast
5:55 AM 32.0 °F 26.4 °F 28.4 °F 87% 30.07 in 7.0 mi North 5.8 mph - N/A   Overcast
6:15 AM 32.0 °F 26.4 °F 30.2 °F 93% 30.08 in 7.0 mi North 5.8 mph - N/A   Overcast
6:55 AM 32.0 °F 25.6 °F 28.4 °F 87% 30.09 in 7.0 mi NNE 6.9 mph - N/A   Overcast
7:15 AM 32.0 °F 27.5 °F 28.4 °F 87% 30.10 in 7.0 mi North 4.6 mph - N/A   Overcast
7:35 AM 32.0 °F 26.4 °F 28.4 °F 87% 30.10 in 10.0 mi NNE 5.8 mph - N/A   Overcast
7:55 AM 32.0 °F 26.4 °F 26.6 °F 80% 30.09 in 10.0 mi NE 5.8 mph - N/A   Overcast
8:15 AM 32.0 °F 27.5 °F 26.6 °F 80% 30.08 in 10.0 mi NNE 4.6 mph - N/A   Overcast
8:35 AM 32.0 °F 24.8 °F 26.6 °F 80% 30.09 in 10.0 mi NE 8.1 mph - N/A   Overcast
8:55 AM 32.0 °F 24.8 °F 26.6 °F 80% 30.09 in 10.0 mi NE 8.1 mph - N/A   Overcast
9:15 AM 32.0 °F 25.6 °F 26.6 °F 80% 30.10 in 10.0 mi NE 6.9 mph - N/A   Overcast
9:35 AM 32.0 °F 25.6 °F 26.6 °F 80% 30.12 in 10.0 mi NE 6.9 mph - N/A   Overcast
9:55 AM 32.0 °F 25.6 °F 26.6 °F 80% 30.12 in 10.0 mi NE 6.9 mph - N/A   Overcast
10:15 AM 32.0 °F 24.8 °F 26.6 °F 80% 30.13 in 10.0 mi ENE 8.1 mph - N/A   Overcast
10:35 AM 32.0 °F 25.6 °F 26.6 °F 80% 30.12 in 10.0 mi NE 6.9 mph - N/A   Overcast
10:55 AM 32.0 °F 24.8 °F 26.6 °F 80% 30.12 in 10.0 mi NE 8.1 mph - N/A   Overcast
11:15 AM 33.8 °F 27.0 °F 26.6 °F 75% 30.10 in 10.0 mi ENE 8.1 mph - N/A   Overcast
11:35 AM 33.8 °F 27.0 °F 28.4 °F 81% 30.10 in 10.0 mi ENE 8.1 mph - N/A   Overcast
11:55 AM 33.8 °F 28.6 °F 28.4 °F 81% 30.10 in 10.0 mi NE 5.8 mph - N/A   Overcast
12:15 PM 33.8 °F 29.6 °F 28.4 °F 81% 30.10 in 10.0 mi ENE 4.6 mph - N/A   Overcast
12:35 PM 33.8 °F 29.6 °F 28.4 °F 81% 30.09 in 10.0 mi NE 4.6 mph - N/A   Overcast
12:55 PM 33.8 °F 27.7 °F 28.4 °F 81% 30.10 in 10.0 mi ENE 6.9 mph - N/A   Overcast
1:15 PM 33.8 °F 27.7 °F 28.4 °F 81% 30.09 in 10.0 mi NNE 6.9 mph - N/A   Overcast
1:35 PM 33.8 °F 29.6 °F 28.4 °F 81% 30.09 in 10.0 mi NNE 4.6 mph - N/A   Overcast
1:55 PM 33.8 °F 27.7 °F 28.4 °F 81% 30.09 in 10.0 mi NE 6.9 mph - N/A   Overcast
2:35 PM 33.8 °F 28.6 °F 28.4 °F 81% 30.10 in 10.0 mi NE 5.8 mph - N/A   Overcast
2:55 PM 33.8 °F 27.0 °F 30.2 °F 87% 30.08 in 10.0 mi NE 8.1 mph - N/A   Overcast
3:15 PM 33.8 °F 28.6 °F 30.2 °F 87% 30.08 in 10.0 mi ENE 5.8 mph - N/A   Overcast
3:35 PM 33.8 °F 27.7 °F 30.2 °F 87% 30.06 in 10.0 mi NE 6.9 mph - N/A   Overcast
3:55 PM 33.8 °F 26.4 °F 30.2 °F 87% 30.06 in 10.0 mi NE 9.2 mph - N/A   Overcast
4:15 PM 33.8 °F 25.8 °F 30.2 °F 87% 30.05 in 7.0 mi NE 10.4 mph - N/A   Overcast
4:35 PM 33.8 °F 26.4 °F 30.2 °F 87% 30.03 in 7.0 mi NE 9.2 mph - N/A   Overcast
4:55 PM 33.8 °F 26.4 °F 30.2 °F 87% 30.02 in 7.0 mi ENE 9.2 mph - N/A   Overcast
5:15 PM 33.8 °F 26.4 °F 30.2 °F 87% 30.03 in 7.0 mi NE 9.2 mph - N/A   Overcast
5:55 PM 33.8 °F 26.4 °F 30.2 °F 87% 30.02 in 7.0 mi NE 9.2 mph - N/A   Overcast
6:15 PM 33.8 °F 26.4 °F 30.2 °F 87% 30.01 in 7.0 mi ENE 9.2 mph - N/A   Mostly Cloudy
6:35 PM 33.8 °F 27.0 °F 30.2 °F 87% 30.01 in 7.0 mi ENE 8.1 mph - N/A   Mostly Cloudy
6:55 PM 33.8 °F 26.4 °F 30.2 °F 87% 30.02 in 7.0 mi ENE 9.2 mph - N/A   Mostly Cloudy
7:15 PM 33.8 °F 27.0 °F 30.2 °F 87% 30.02 in 7.0 mi ENE 8.1 mph - N/A   Mostly Cloudy
7:35 PM 35.6 °F 28.6 °F 30.2 °F 81% 30.01 in 7.0 mi ENE 9.2 mph - N/A   Overcast
7:55 PM 33.8 °F 25.8 °F 30.2 °F 87% 30.00 in 7.0 mi ENE 10.4 mph - N/A   Mostly Cloudy
8:15 PM 33.8 °F 25.8 °F 30.2 °F 87% 29.98 in 7.0 mi ENE 10.4 mph 16.1 mph N/A   Scattered Clouds
8:35 PM 33.8 °F 25.8 °F 30.2 °F 87% 29.97 in 10.0 mi NE 10.4 mph 16.1 mph N/A   Mostly Cloudy
8:55 PM 35.6 °F 29.2 °F 30.2 °F 81% 29.98 in 10.0 mi ENE 8.1 mph - N/A   Overcast
9:15 PM 35.6 °F 29.9 °F 30.2 °F 81% 29.99 in 10.0 mi ENE 6.9 mph - N/A   Overcast
9:35 PM 35.6 °F 29.2 °F 30.2 °F 81% 29.99 in 10.0 mi ENE 8.1 mph - N/A   Overcast
9:55 PM 35.6 °F 28.6 °F 30.2 °F 81% 29.98 in 10.0 mi ENE 9.2 mph - N/A   Overcast
10:15 PM 35.6 °F 28.0 °F 30.2 °F 81% 29.97 in 10.0 mi ENE 10.4 mph - N/A   Overcast
10:35 PM 35.6 °F 27.5 °F 30.2 °F 81% 29.93 in 10.0 mi ENE 11.5 mph 16.1 mph N/A   Overcast
11:15 PM 35.6 °F 26.2 °F 32.0 °F 87% 29.92 in 10.0 mi East 15.0 mph 21.9 mph N/A   Overcast
11:35 PM 35.6 °F 27.1 °F 32.0 °F 87% 29.91 in 5.0 mi East 12.7 mph - N/A   Overcast
11:55 PM 35.6 °F 26.2 °F 32.0 °F 87% 29.90 in 4.0 mi East 15.0 mph 20.7 mph N/A   Overcast